Location: Nairn
(57.5833°N, 3.8667°W)
Time: 09:01:33
(UTC+00:00)

Vanguard 1 - Pass Details

Date: 02 December 2020
Orbit: 649 x 3834 km, 34.3° (Epoch: 15 January)

Event Time Altitude Azimuth Distance (km) Brightness Sun altitude
Rises 09:36:57 0° 246° (WSW) 4,590 13.4 4.6°
Reaches altitude 10° 09:43:05 10° 215° (SW) 4,342 13.7 5.0°
Maximum altitude 09:46:15 11° 200° (SSW) 4,587 14.1 5.3°
Drops below altitude 10° 09:49:51 10° 185° (S) 5,089 14.7 5.5°
Sets 09:59:42 0° 159° (SSE) 7,007 16.8 6.2°
